Year,Month,Day,Hour,Minute,Value (Times are PST for temperature in C)
2017,09,05,00,00,18.40
2017,09,05,00,01,18.40
2017,09,05,00,02,18.40
2017,09,05,00,03,18.40
2017,09,05,00,04,18.40
2017,09,05,00,05,18.40
2017,09,05,00,06,18.40
2017,09,05,00,07,18.40
2017,09,05,00,08,18.40
2017,09,05,00,09,18.40
2017,09,05,00,10,18.40
2017,09,05,00,11,18.40
2017,09,05,00,12,18.40
2017,09,05,00,13,18.40
2017,09,05,00,14,18.40
2017,09,05,00,15,18.30
2017,09,05,00,16,18.30
2017,09,05,00,17,18.30
2017,09,05,00,18,18.30
2017,09,05,00,19,18.30
2017,09,05,00,20,18.30
2017,09,05,00,21,18.30
2017,09,05,00,22,18.30
2017,09,05,00,23,18.30
2017,09,05,00,24,18.40
2017,09,05,00,25,18.40
2017,09,05,00,26,18.40
2017,09,05,00,27,18.40
2017,09,05,00,28,18.40
2017,09,05,00,29,18.40
2017,09,05,00,30,18.40
2017,09,05,00,31,18.40
2017,09,05,00,32,18.40
2017,09,05,00,33,18.30
2017,09,05,00,34,18.30
2017,09,05,00,35,18.30
2017,09,05,00,36,18.30
2017,09,05,00,37,18.30
2017,09,05,00,38,18.30
2017,09,05,00,39,18.30
2017,09,05,00,40,18.30
2017,09,05,00,41,18.30
2017,09,05,00,42,18.30
2017,09,05,00,43,18.30
2017,09,05,00,44,18.30
2017,09,05,00,45,18.30
2017,09,05,00,46,18.30
2017,09,05,00,47,18.30
2017,09,05,00,48,18.20
2017,09,05,00,49,18.20
2017,09,05,00,50,18.20
2017,09,05,00,51,18.20
2017,09,05,00,52,18.20
2017,09,05,00,53,18.20
2017,09,05,00,54,18.20
2017,09,05,00,55,18.20
2017,09,05,00,56,18.20
2017,09,05,00,57,18.20
2017,09,05,00,58,18.20
2017,09,05,00,59,18.20
2017,09,05,01,00,18.20
2017,09,05,01,01,18.20
2017,09,05,01,02,18.20
2017,09,05,01,03,18.20
2017,09,05,01,04,18.20
2017,09,05,01,05,18.20
2017,09,05,01,06,18.20
2017,09,05,01,07,18.20
2017,09,05,01,08,18.20
2017,09,05,01,09,18.20
2017,09,05,01,10,18.20
2017,09,05,01,11,18.20
2017,09,05,01,12,18.20
2017,09,05,01,13,18.20
2017,09,05,01,14,18.20
2017,09,05,01,15,18.20
2017,09,05,01,16,18.20
2017,09,05,01,17,18.20
2017,09,05,01,18,18.20
2017,09,05,01,19,18.20
2017,09,05,01,20,18.20
2017,09,05,01,21,18.20
2017,09,05,01,22,18.20
2017,09,05,01,23,18.20
2017,09,05,01,24,18.20
2017,09,05,01,25,18.10
2017,09,05,01,26,18.10
2017,09,05,01,27,18.10
2017,09,05,01,28,18.10
2017,09,05,01,29,18.10
2017,09,05,01,30,18.10
2017,09,05,01,31,18.10
2017,09,05,01,32,18.10
2017,09,05,01,33,18.10
2017,09,05,01,34,18.10
2017,09,05,01,35,18.00
2017,09,05,01,36,18.00
2017,09,05,01,37,18.00
2017,09,05,01,38,18.00
2017,09,05,01,39,18.00
2017,09,05,01,40,18.00
2017,09,05,01,41,17.90
2017,09,05,01,42,17.90
2017,09,05,01,43,17.90
2017,09,05,01,44,17.90
2017,09,05,01,45,17.90
2017,09,05,01,46,17.90
2017,09,05,01,47,17.90
2017,09,05,01,48,17.90
2017,09,05,01,49,17.90
2017,09,05,01,50,17.80
2017,09,05,01,51,17.80
2017,09,05,01,52,17.80
2017,09,05,01,53,17.80
2017,09,05,01,54,17.80
2017,09,05,01,55,17.80
2017,09,05,01,56,17.80
2017,09,05,01,57,17.80
2017,09,05,01,58,17.80
2017,09,05,01,59,17.80
2017,09,05,02,00,17.80
2017,09,05,02,01,17.70
2017,09,05,02,02,17.70
2017,09,05,02,03,17.80
2017,09,05,02,04,17.80
2017,09,05,02,05,17.80
2017,09,05,02,06,17.80
2017,09,05,02,07,17.80
2017,09,05,02,08,17.80
2017,09,05,02,09,17.80
2017,09,05,02,10,17.80
2017,09,05,02,11,17.80
2017,09,05,02,12,17.80
2017,09,05,02,13,17.80
2017,09,05,02,14,17.80
2017,09,05,02,15,17.70
2017,09,05,02,16,17.70
2017,09,05,02,17,17.70
2017,09,05,02,18,17.70
2017,09,05,02,19,17.70
2017,09,05,02,20,17.70
2017,09,05,02,21,17.70
2017,09,05,02,22,17.70
2017,09,05,02,23,17.70
2017,09,05,02,24,17.70
2017,09,05,02,25,17.60
2017,09,05,02,26,17.60
2017,09,05,02,27,17.60
2017,09,05,02,28,17.60
2017,09,05,02,29,17.60
2017,09,05,02,30,17.60
2017,09,05,02,31,17.60
2017,09,05,02,32,17.60
2017,09,05,02,33,17.60
2017,09,05,02,34,17.60
2017,09,05,02,35,17.60
2017,09,05,02,36,17.60
2017,09,05,02,37,17.60
2017,09,05,02,38,17.60
2017,09,05,02,39,17.60
2017,09,05,02,40,17.60
2017,09,05,02,41,17.60
2017,09,05,02,42,17.60
2017,09,05,02,43,17.60
2017,09,05,02,44,17.50
2017,09,05,02,45,17.50
2017,09,05,02,46,17.50
2017,09,05,02,47,17.50
2017,09,05,02,48,17.50
2017,09,05,02,49,17.40
2017,09,05,02,50,17.40
2017,09,05,02,51,17.40
2017,09,05,02,52,17.40
2017,09,05,02,53,17.40
2017,09,05,02,54,17.40
2017,09,05,02,55,17.40
2017,09,05,02,56,17.30
2017,09,05,02,57,17.30
2017,09,05,02,58,17.30
2017,09,05,02,59,17.30
2017,09,05,03,00,17.30
2017,09,05,03,01,17.20
2017,09,05,03,02,17.20
2017,09,05,03,03,17.20
2017,09,05,03,04,17.20
2017,09,05,03,05,17.20
2017,09,05,03,06,17.10
2017,09,05,03,07,17.10
2017,09,05,03,08,17.10
2017,09,05,03,09,17.10
2017,09,05,03,10,17.10
2017,09,05,03,11,17.10
2017,09,05,03,12,17.10
2017,09,05,03,13,17.00
2017,09,05,03,14,17.00
2017,09,05,03,15,17.00
2017,09,05,03,16,17.00
2017,09,05,03,17,16.90
2017,09,05,03,18,16.90
2017,09,05,03,19,16.90
2017,09,05,03,20,16.90
2017,09,05,03,21,16.90
2017,09,05,03,22,16.90
2017,09,05,03,23,16.90
2017,09,05,03,24,16.90
2017,09,05,03,25,16.90
2017,09,05,03,26,16.90
2017,09,05,03,27,16.90
2017,09,05,03,28,16.90
2017,09,05,03,29,16.90
2017,09,05,03,30,16.90
2017,09,05,03,31,16.90
2017,09,05,03,32,16.90
2017,09,05,03,33,16.90
2017,09,05,03,34,16.90
2017,09,05,03,35,16.90
2017,09,05,03,36,16.90
2017,09,05,03,37,16.90
2017,09,05,03,38,16.90
2017,09,05,03,39,16.80
2017,09,05,03,40,16.80
2017,09,05,03,41,16.80
2017,09,05,03,42,16.80
2017,09,05,03,43,16.80
2017,09,05,03,44,16.80
2017,09,05,03,45,16.80
2017,09,05,03,46,16.80
2017,09,05,03,47,16.80
2017,09,05,03,48,16.80
2017,09,05,03,49,16.80
2017,09,05,03,50,16.80
2017,09,05,03,51,16.80
2017,09,05,03,52,16.80
2017,09,05,03,53,16.80
2017,09,05,03,54,16.80
2017,09,05,03,55,16.80
2017,09,05,03,56,16.80
2017,09,05,03,57,16.80
2017,09,05,03,58,16.70
2017,09,05,03,59,16.70
2017,09,05,04,00,16.70
2017,09,05,04,01,16.70
2017,09,05,04,02,16.70
2017,09,05,04,03,16.70
2017,09,05,04,04,16.70
2017,09,05,04,05,16.70
2017,09,05,04,06,16.70
2017,09,05,04,07,16.70
2017,09,05,04,08,16.70
2017,09,05,04,09,16.70
2017,09,05,04,10,16.70
2017,09,05,04,11,16.70
2017,09,05,04,12,16.70
2017,09,05,04,13,16.70
2017,09,05,04,14,16.70
2017,09,05,04,15,16.70
2017,09,05,04,16,16.70
2017,09,05,04,17,16.70
2017,09,05,04,18,16.70
2017,09,05,04,19,16.70
2017,09,05,04,20,16.70
2017,09,05,04,21,16.70
2017,09,05,04,22,16.70
2017,09,05,04,23,16.70
2017,09,05,04,24,16.70
2017,09,05,04,25,16.70
2017,09,05,04,26,16.70
2017,09,05,04,27,16.70
2017,09,05,04,28,16.70
2017,09,05,04,29,16.70
2017,09,05,04,30,16.70
2017,09,05,04,31,16.70
2017,09,05,04,32,16.70
2017,09,05,04,33,16.70
2017,09,05,04,34,16.70
2017,09,05,04,35,16.70
2017,09,05,04,36,16.70
2017,09,05,04,37,16.70
2017,09,05,04,38,16.70
2017,09,05,04,39,16.70
2017,09,05,04,40,16.70
2017,09,05,04,41,16.70
2017,09,05,04,42,16.70
2017,09,05,04,43,16.70
2017,09,05,04,44,16.70
2017,09,05,04,45,16.70
2017,09,05,04,46,16.70
2017,09,05,04,47,16.70
2017,09,05,04,48,16.70
2017,09,05,04,49,16.70
2017,09,05,04,50,16.70
2017,09,05,04,51,16.70
2017,09,05,04,52,16.70
2017,09,05,04,53,16.70
2017,09,05,04,54,16.70
2017,09,05,04,55,16.70
2017,09,05,04,56,16.70
2017,09,05,04,57,16.70
2017,09,05,04,58,16.70
2017,09,05,04,59,16.70
2017,09,05,05,00,16.70
2017,09,05,05,01,16.70
2017,09,05,05,02,16.70
2017,09,05,05,03,16.70
2017,09,05,05,04,16.70
2017,09,05,05,05,16.70
2017,09,05,05,06,16.70
2017,09,05,05,07,16.70
2017,09,05,05,08,16.70
2017,09,05,05,09,16.70
2017,09,05,05,10,16.70
2017,09,05,05,11,16.70
2017,09,05,05,12,16.70
2017,09,05,05,13,16.70
2017,09,05,05,14,16.70
2017,09,05,05,15,16.70
2017,09,05,05,16,16.70
2017,09,05,05,17,16.70
2017,09,05,05,18,16.70
2017,09,05,05,19,16.70
2017,09,05,05,20,16.70
2017,09,05,05,21,16.70
2017,09,05,05,22,16.70
2017,09,05,05,23,16.70
2017,09,05,05,24,16.70
2017,09,05,05,25,16.70
2017,09,05,05,26,16.80
2017,09,05,05,27,16.80
2017,09,05,05,28,16.80
2017,09,05,05,29,16.80
2017,09,05,05,30,16.80
2017,09,05,05,31,16.80
2017,09,05,05,32,16.80
2017,09,05,05,33,16.80
2017,09,05,05,34,16.80
2017,09,05,05,35,16.80
2017,09,05,05,36,16.80
2017,09,05,05,37,16.80
2017,09,05,05,38,16.80
2017,09,05,05,39,16.80
2017,09,05,05,40,16.80
2017,09,05,05,41,16.80
2017,09,05,05,42,16.80
2017,09,05,05,43,16.80
2017,09,05,05,44,16.80
2017,09,05,05,45,16.80
2017,09,05,05,46,16.80
2017,09,05,05,47,16.80
2017,09,05,05,48,16.80
2017,09,05,05,49,16.80
2017,09,05,05,50,16.80
2017,09,05,05,51,16.80
2017,09,05,05,52,16.80
2017,09,05,05,53,16.70
2017,09,05,05,54,16.70
2017,09,05,05,55,16.70
2017,09,05,05,56,16.70
2017,09,05,05,57,16.70
2017,09,05,05,58,16.70
2017,09,05,05,59,16.70
2017,09,05,06,00,16.70
2017,09,05,06,01,16.70
2017,09,05,06,02,16.70
2017,09,05,06,03,16.70
2017,09,05,06,04,16.70
2017,09,05,06,05,16.70
2017,09,05,06,06,16.80
2017,09,05,06,07,16.80
2017,09,05,06,08,16.80
2017,09,05,06,09,16.80
2017,09,05,06,10,16.80
2017,09,05,06,11,16.80
2017,09,05,06,12,16.80
2017,09,05,06,13,16.80
2017,09,05,06,14,16.80
2017,09,05,06,15,16.80
2017,09,05,06,16,16.80
2017,09,05,06,17,16.80
2017,09,05,06,18,16.80
2017,09,05,06,19,16.80
2017,09,05,06,20,16.90
2017,09,05,06,21,16.90
2017,09,05,06,22,16.90
2017,09,05,06,23,16.90
2017,09,05,06,24,16.90
2017,09,05,06,25,16.90
2017,09,05,06,26,16.90
2017,09,05,06,27,16.90
2017,09,05,06,28,17.00
2017,09,05,06,29,17.00
2017,09,05,06,30,17.00
2017,09,05,06,31,17.00
2017,09,05,06,32,17.00
2017,09,05,06,33,17.00
2017,09,05,06,34,17.00
2017,09,05,06,35,17.00
2017,09,05,06,36,17.00
2017,09,05,06,37,17.00
2017,09,05,06,38,17.00
2017,09,05,06,39,17.00
2017,09,05,06,40,17.00
2017,09,05,06,41,17.00
2017,09,05,06,42,17.00
2017,09,05,06,43,17.00
2017,09,05,06,44,17.10
2017,09,05,06,45,17.10
2017,09,05,06,46,17.10
2017,09,05,06,47,17.10
2017,09,05,06,48,17.10
2017,09,05,06,49,17.10
2017,09,05,06,50,17.10
2017,09,05,06,51,17.10
2017,09,05,06,52,17.10
2017,09,05,06,53,17.10
2017,09,05,06,54,17.10
2017,09,05,06,55,17.10
2017,09,05,06,56,17.10
2017,09,05,06,57,17.10
2017,09,05,06,58,17.10
2017,09,05,06,59,17.10
2017,09,05,07,00,17.10
2017,09,05,07,01,17.10
2017,09,05,07,02,17.10
2017,09,05,07,03,17.10
2017,09,05,07,04,17.10
2017,09,05,07,05,17.10
2017,09,05,07,06,17.10
2017,09,05,07,07,17.10
2017,09,05,07,08,17.20
2017,09,05,07,09,17.20
2017,09,05,07,10,17.20
2017,09,05,07,11,17.20
2017,09,05,07,12,17.20
2017,09,05,07,13,17.20
2017,09,05,07,14,17.20
2017,09,05,07,15,17.30
2017,09,05,07,16,17.30
2017,09,05,07,17,17.30
2017,09,05,07,18,17.40
2017,09,05,07,19,17.40
2017,09,05,07,20,17.40
2017,09,05,07,21,17.40
2017,09,05,07,22,17.40
2017,09,05,07,23,17.40
2017,09,05,07,24,17.50
2017,09,05,07,25,17.50
2017,09,05,07,26,17.50
2017,09,05,07,27,17.50
2017,09,05,07,28,17.50
2017,09,05,07,29,17.50
2017,09,05,07,30,17.50
2017,09,05,07,31,17.50
2017,09,05,07,32,17.50
2017,09,05,07,33,17.50
2017,09,05,07,34,17.50
2017,09,05,07,35,17.50
2017,09,05,07,36,17.50
2017,09,05,07,37,17.50
2017,09,05,07,38,17.50
2017,09,05,07,39,17.50
2017,09,05,07,40,17.60
2017,09,05,07,41,17.60
2017,09,05,07,42,17.60
2017,09,05,07,43,17.70
2017,09,05,07,44,17.70
2017,09,05,07,45,17.70
2017,09,05,07,46,17.70
2017,09,05,07,47,17.70
2017,09,05,07,48,17.70
2017,09,05,07,49,17.70
2017,09,05,07,50,17.80
2017,09,05,07,51,17.80
2017,09,05,07,52,17.80
2017,09,05,07,53,17.80
2017,09,05,07,54,17.80
2017,09,05,07,55,17.80
2017,09,05,07,56,17.80
2017,09,05,07,57,17.90
2017,09,05,07,58,17.90
2017,09,05,07,59,17.90
2017,09,05,08,00,17.90
2017,09,05,08,01,17.90
2017,09,05,08,02,18.00
2017,09,05,08,03,18.00
2017,09,05,08,04,18.00
2017,09,05,08,05,18.00
2017,09,05,08,06,18.10
2017,09,05,08,07,18.10
2017,09,05,08,08,18.10
2017,09,05,08,09,18.20
2017,09,05,08,10,18.20
2017,09,05,08,11,18.20
2017,09,05,08,12,18.20
2017,09,05,08,13,18.30
2017,09,05,08,14,18.30
2017,09,05,08,15,18.30
2017,09,05,08,16,18.30
2017,09,05,08,17,18.40
2017,09,05,08,18,18.40
2017,09,05,08,19,18.50
2017,09,05,08,20,18.50
2017,09,05,08,21,18.60
2017,09,05,08,22,18.60
2017,09,05,08,23,18.60
2017,09,05,08,24,18.60
2017,09,05,08,25,18.60
2017,09,05,08,26,18.70
2017,09,05,08,27,18.70
2017,09,05,08,28,18.70
2017,09,05,08,29,18.70
2017,09,05,08,30,18.70
2017,09,05,08,31,18.80
2017,09,05,08,32,18.80
2017,09,05,08,33,18.80
2017,09,05,08,34,18.80
2017,09,05,08,35,18.80
2017,09,05,08,36,18.80
2017,09,05,08,37,18.80
2017,09,05,08,38,18.80
2017,09,05,08,39,18.80
2017,09,05,08,40,18.80
2017,09,05,08,41,18.80
2017,09,05,08,42,18.80
2017,09,05,08,43,18.80
2017,09,05,08,44,18.80
2017,09,05,08,45,18.80
2017,09,05,08,46,18.80
2017,09,05,08,47,18.90
2017,09,05,08,48,18.90
2017,09,05,08,49,18.90
2017,09,05,08,50,18.90
2017,09,05,08,51,18.90
2017,09,05,08,52,18.90
2017,09,05,08,53,18.90
2017,09,05,08,54,18.90
2017,09,05,08,55,19.00
2017,09,05,08,56,19.00
2017,09,05,08,57,19.00
2017,09,05,08,58,19.00
2017,09,05,08,59,19.00
2017,09,05,09,00,19.10
2017,09,05,09,01,19.10
2017,09,05,09,02,19.10
2017,09,05,09,03,19.10
2017,09,05,09,04,19.10
2017,09,05,09,05,19.10
2017,09,05,09,06,19.10
2017,09,05,09,07,19.10
2017,09,05,09,08,19.20
2017,09,05,09,09,19.20
2017,09,05,09,10,19.20
2017,09,05,09,11,19.20
2017,09,05,09,12,19.20
2017,09,05,09,13,19.20
2017,09,05,09,14,19.20
2017,09,05,09,15,19.30
2017,09,05,09,16,19.30
2017,09,05,09,17,19.30
2017,09,05,09,18,19.40
2017,09,05,09,19,19.40
2017,09,05,09,20,19.50
2017,09,05,09,21,19.50
2017,09,05,09,22,19.60
2017,09,05,09,23,19.60
2017,09,05,09,24,19.70
2017,09,05,09,25,19.70
2017,09,05,09,26,19.70
2017,09,05,09,27,19.70
2017,09,05,09,28,19.80
2017,09,05,09,29,19.80
2017,09,05,09,30,19.80
2017,09,05,09,31,19.80
2017,09,05,09,32,19.80
2017,09,05,09,33,19.80
2017,09,05,09,34,19.80
2017,09,05,09,35,19.80
2017,09,05,09,36,19.80
2017,09,05,09,37,19.90
2017,09,05,09,38,19.90
2017,09,05,09,39,19.90
2017,09,05,09,40,19.90
2017,09,05,09,41,19.90
2017,09,05,09,42,20.00
2017,09,05,09,43,20.00
2017,09,05,09,44,20.00
2017,09,05,09,45,20.10
2017,09,05,09,46,20.10
2017,09,05,09,47,20.10
2017,09,05,09,48,20.10
2017,09,05,09,49,20.20
2017,09,05,09,50,20.20
2017,09,05,09,51,20.20
2017,09,05,09,52,20.20
2017,09,05,09,53,20.20
2017,09,05,09,54,20.20
2017,09,05,09,55,20.20
2017,09,05,09,56,20.20
2017,09,05,09,57,20.20
2017,09,05,09,58,20.30
2017,09,05,09,59,20.30
2017,09,05,10,00,20.30
2017,09,05,10,01,20.30
2017,09,05,10,02,20.40
2017,09,05,10,03,20.40
2017,09,05,10,04,20.50
2017,09,05,10,05,20.50
2017,09,05,10,06,20.60
2017,09,05,10,07,20.70
2017,09,05,10,08,20.70
2017,09,05,10,09,20.80
2017,09,05,10,10,20.80
2017,09,05,10,11,20.90
2017,09,05,10,12,21.00
2017,09,05,10,13,21.00
2017,09,05,10,14,21.10
2017,09,05,10,15,21.20
2017,09,05,10,16,21.30
2017,09,05,10,17,21.30
2017,09,05,10,18,21.30
2017,09,05,10,19,21.40
2017,09,05,10,20,21.40
2017,09,05,10,21,21.50
2017,09,05,10,22,21.50
2017,09,05,10,23,21.60
2017,09,05,10,24,21.60
2017,09,05,10,25,21.70
2017,09,05,10,26,21.70
2017,09,05,10,27,21.70
2017,09,05,10,28,21.70
2017,09,05,10,29,21.80
2017,09,05,10,30,21.80
2017,09,05,10,31,21.80
2017,09,05,10,32,21.80
2017,09,05,10,33,21.80
2017,09,05,10,34,21.80
2017,09,05,10,35,21.90
2017,09,05,10,36,21.90
2017,09,05,10,37,21.90
2017,09,05,10,38,21.90
2017,09,05,10,39,22.00
2017,09,05,10,40,22.00
2017,09,05,10,41,22.00
2017,09,05,10,42,22.10
2017,09,05,10,43,22.10
2017,09,05,10,44,22.10
2017,09,05,10,45,22.20
2017,09,05,10,46,22.20
2017,09,05,10,47,22.30
2017,09,05,10,48,22.30
2017,09,05,10,49,22.40
2017,09,05,10,50,22.40
2017,09,05,10,51,22.40
2017,09,05,10,52,22.50
2017,09,05,10,53,22.50
2017,09,05,10,54,22.60
2017,09,05,10,55,22.60
2017,09,05,10,56,22.70
2017,09,05,10,57,22.70
2017,09,05,10,58,22.70
2017,09,05,10,59,22.80
2017,09,05,11,00,22.80
2017,09,05,11,01,22.80
2017,09,05,11,02,22.90
2017,09,05,11,03,22.90
2017,09,05,11,04,22.90
2017,09,05,11,05,22.90
2017,09,05,11,06,22.90
2017,09,05,11,07,23.00
2017,09,05,11,08,23.00
2017,09,05,11,09,23.10
2017,09,05,11,10,23.10
2017,09,05,11,11,23.10
2017,09,05,11,12,23.20
2017,09,05,11,13,23.20
2017,09,05,11,14,23.20
2017,09,05,11,15,23.20
2017,09,05,11,16,23.30
2017,09,05,11,17,23.30
2017,09,05,11,18,23.30
2017,09,05,11,19,23.30
2017,09,05,11,20,23.30
2017,09,05,11,21,23.30
2017,09,05,11,22,23.40
2017,09,05,11,23,23.40
2017,09,05,11,24,23.40
2017,09,05,11,25,23.40
2017,09,05,11,26,23.40
2017,09,05,11,27,23.40
2017,09,05,11,28,23.40
2017,09,05,11,29,23.40
2017,09,05,11,30,23.40
2017,09,05,11,31,23.40
2017,09,05,11,32,23.40
2017,09,05,11,33,23.40
2017,09,05,11,34,23.40
2017,09,05,11,35,23.40
2017,09,05,11,36,23.40
2017,09,05,11,37,23.40
2017,09,05,11,38,23.40
2017,09,05,11,39,23.40
2017,09,05,11,40,23.40
2017,09,05,11,41,23.50
2017,09,05,11,42,23.60
2017,09,05,11,43,23.60
2017,09,05,11,44,23.60
2017,09,05,11,45,23.70
2017,09,05,11,46,23.80
2017,09,05,11,47,23.80
2017,09,05,11,48,23.80
2017,09,05,11,49,23.90
2017,09,05,11,50,23.90
2017,09,05,11,51,24.00
2017,09,05,11,52,24.00
2017,09,05,11,53,24.10
2017,09,05,11,54,24.10
2017,09,05,11,55,24.20
2017,09,05,11,56,24.20
2017,09,05,11,57,24.20
2017,09,05,11,58,24.30
2017,09,05,11,59,24.30
2017,09,05,12,00,24.40
2017,09,05,12,01,24.40
2017,09,05,12,02,24.50
2017,09,05,12,03,24.50
2017,09,05,12,04,24.60
2017,09,05,12,05,24.60
2017,09,05,12,06,24.60
2017,09,05,12,07,24.60
2017,09,05,12,08,24.70
2017,09,05,12,09,24.70
2017,09,05,12,10,24.70
2017,09,05,12,11,24.80
2017,09,05,12,12,24.80
2017,09,05,12,13,24.90
2017,09,05,12,14,24.90
2017,09,05,12,15,25.00
2017,09,05,12,16,25.10
2017,09,05,12,17,25.20
2017,09,05,12,18,25.20
2017,09,05,12,19,25.30
2017,09,05,12,20,25.30
2017,09,05,12,21,25.30
2017,09,05,12,22,25.40
2017,09,05,12,23,25.50
2017,09,05,12,24,25.60
2017,09,05,12,25,25.60
2017,09,05,12,26,25.70
2017,09,05,12,27,25.80
2017,09,05,12,28,25.90
2017,09,05,12,29,25.90
2017,09,05,12,30,25.90
2017,09,05,12,31,26.00
2017,09,05,12,32,26.10
2017,09,05,12,33,26.20
2017,09,05,12,34,26.30
2017,09,05,12,35,26.40
2017,09,05,12,36,26.50
2017,09,05,12,37,26.60
2017,09,05,12,38,26.60
2017,09,05,12,39,26.60
2017,09,05,12,40,26.60
2017,09,05,12,41,26.70
2017,09,05,12,42,26.70
2017,09,05,12,43,26.70
2017,09,05,12,44,26.80
2017,09,05,12,45,26.80
2017,09,05,12,46,26.90
2017,09,05,12,47,26.90
2017,09,05,12,48,26.90
2017,09,05,12,49,26.90
2017,09,05,12,50,26.90
2017,09,05,12,51,26.90
2017,09,05,12,52,26.90
2017,09,05,12,53,26.90
2017,09,05,12,54,26.90
2017,09,05,12,55,26.90
2017,09,05,12,56,26.90
2017,09,05,12,57,27.00
2017,09,05,12,58,27.00
2017,09,05,12,59,27.10
2017,09,05,13,00,27.10
2017,09,05,13,01,27.10
2017,09,05,13,02,27.20
2017,09,05,13,03,27.20
2017,09,05,13,04,27.20
2017,09,05,13,05,27.30
2017,09,05,13,06,27.30
2017,09,05,13,07,27.30
2017,09,05,13,08,27.30
2017,09,05,13,09,27.40
2017,09,05,13,10,27.40
2017,09,05,13,11,27.40
2017,09,05,13,12,27.40
2017,09,05,13,13,27.40
2017,09,05,13,14,27.40
2017,09,05,13,15,27.40
2017,09,05,13,16,27.40
2017,09,05,13,17,27.40
2017,09,05,13,18,27.40
2017,09,05,13,19,27.40
2017,09,05,13,20,27.40
2017,09,05,13,21,27.40
2017,09,05,13,22,27.40
2017,09,05,13,23,27.40
2017,09,05,13,24,27.40
2017,09,05,13,25,27.40
2017,09,05,13,26,27.40
2017,09,05,13,27,27.40
2017,09,05,13,28,27.30
2017,09,05,13,29,27.30
2017,09,05,13,30,27.30
2017,09,05,13,31,27.30
2017,09,05,13,32,27.20
2017,09,05,13,33,27.20
2017,09,05,13,34,27.20
2017,09,05,13,35,27.20
2017,09,05,13,36,27.20
2017,09,05,13,37,27.10
2017,09,05,13,38,27.10
2017,09,05,13,39,27.10
2017,09,05,13,40,27.20
2017,09,05,13,41,27.20
2017,09,05,13,42,27.20
2017,09,05,13,43,27.20
2017,09,05,13,44,27.20
2017,09,05,13,45,27.20
2017,09,05,13,46,27.20
2017,09,05,13,47,27.20
2017,09,05,13,48,27.20
2017,09,05,13,49,27.20
2017,09,05,13,50,27.20
2017,09,05,13,51,27.20
2017,09,05,13,52,27.10
2017,09,05,13,53,27.10
2017,09,05,13,54,27.10
2017,09,05,13,55,27.10
2017,09,05,13,56,27.10
2017,09,05,13,57,27.10
2017,09,05,13,58,27.00
2017,09,05,13,59,27.00
2017,09,05,14,00,27.00
2017,09,05,14,01,26.90
2017,09,05,14,02,26.90
2017,09,05,14,03,26.90
2017,09,05,14,04,26.80
2017,09,05,14,05,26.80
2017,09,05,14,06,26.80
2017,09,05,14,07,26.80
2017,09,05,14,08,26.80
2017,09,05,14,09,26.80
2017,09,05,14,10,26.80
2017,09,05,14,11,26.70
2017,09,05,14,12,26.70
2017,09,05,14,13,26.70
2017,09,05,14,14,26.70
2017,09,05,14,15,26.70
2017,09,05,14,16,26.70
2017,09,05,14,17,26.60
2017,09,05,14,18,26.60
2017,09,05,14,19,26.60
2017,09,05,14,20,26.60
2017,09,05,14,21,26.60
2017,09,05,14,22,26.60
2017,09,05,14,23,26.60
2017,09,05,14,24,26.60
2017,09,05,14,25,26.50
2017,09,05,14,26,26.50
2017,09,05,14,27,26.40
2017,09,05,14,28,26.40
2017,09,05,14,29,26.30
2017,09,05,14,30,26.30
2017,09,05,14,31,26.30
2017,09,05,14,32,26.30
2017,09,05,14,33,26.20
2017,09,05,14,34,26.20
2017,09,05,14,35,26.20
2017,09,05,14,36,26.10
2017,09,05,14,37,26.10
2017,09,05,14,38,26.10
2017,09,05,14,39,26.10
2017,09,05,14,40,26.00
2017,09,05,14,41,26.00
2017,09,05,14,42,25.90
2017,09,05,14,43,25.90
2017,09,05,14,44,25.90
2017,09,05,14,45,25.90
2017,09,05,14,46,25.90
2017,09,05,14,47,25.80
2017,09,05,14,48,25.80
2017,09,05,14,49,25.70
2017,09,05,14,50,25.60
2017,09,05,14,51,25.60
2017,09,05,14,52,25.50
2017,09,05,14,53,25.50
2017,09,05,14,54,25.40
2017,09,05,14,55,25.40
2017,09,05,14,56,25.30
2017,09,05,14,57,25.30
2017,09,05,14,58,25.30
2017,09,05,14,59,25.20
2017,09,05,15,00,25.20
2017,09,05,15,01,25.20
2017,09,05,15,02,25.20
2017,09,05,15,03,25.20
2017,09,05,15,04,25.10
2017,09,05,15,05,25.10
2017,09,05,15,06,25.10
2017,09,05,15,07,25.10
2017,09,05,15,08,25.10
2017,09,05,15,09,25.10
2017,09,05,15,10,25.10
2017,09,05,15,11,25.10
2017,09,05,15,12,25.10
2017,09,05,15,13,25.10
2017,09,05,15,14,25.10
2017,09,05,15,15,25.10
2017,09,05,15,16,25.10
2017,09,05,15,17,25.10
2017,09,05,15,18,25.10
2017,09,05,15,19,25.10
2017,09,05,15,20,25.20
2017,09,05,15,21,25.20
2017,09,05,15,22,25.20
2017,09,05,15,23,25.20
2017,09,05,15,24,25.20
2017,09,05,15,25,25.30
2017,09,05,15,26,25.30
2017,09,05,15,27,25.30
2017,09,05,15,28,25.40
2017,09,05,15,29,25.40
2017,09,05,15,30,25.50
2017,09,05,15,31,25.50
2017,09,05,15,32,25.50
2017,09,05,15,33,25.60
2017,09,05,15,34,25.60
2017,09,05,15,35,25.60
2017,09,05,15,36,25.70
2017,09,05,15,37,25.70
2017,09,05,15,38,25.70
2017,09,05,15,39,25.80
2017,09,05,15,40,25.90
2017,09,05,15,41,25.90
2017,09,05,15,42,25.90
2017,09,05,15,43,26.00
2017,09,05,15,44,26.10
2017,09,05,15,45,26.20
2017,09,05,15,46,26.40
2017,09,05,15,47,26.50
2017,09,05,15,48,26.60
2017,09,05,15,49,26.70
2017,09,05,15,50,26.90
2017,09,05,15,51,27.00
2017,09,05,15,52,27.10
2017,09,05,15,53,27.20
2017,09,05,15,54,27.30
2017,09,05,15,55,27.40
2017,09,05,15,56,27.40
2017,09,05,15,57,27.40
2017,09,05,15,58,27.40
2017,09,05,15,59,27.40
2017,09,05,16,00,27.40
2017,09,05,16,01,27.40
2017,09,05,16,02,27.40
2017,09,05,16,03,27.40
2017,09,05,16,04,27.40
2017,09,05,16,05,27.40
2017,09,05,16,06,27.40
2017,09,05,16,07,27.40
2017,09,05,16,08,27.40
2017,09,05,16,09,27.40
2017,09,05,16,10,27.40
2017,09,05,16,11,27.40
2017,09,05,16,12,27.40
2017,09,05,16,13,27.30
2017,09,05,16,14,27.30
2017,09,05,16,15,27.30
2017,09,05,16,16,27.20
2017,09,05,16,17,27.20
2017,09,05,16,18,27.20
2017,09,05,16,19,27.20
2017,09,05,16,20,27.30
2017,09,05,16,21,27.30
2017,09,05,16,22,27.30
2017,09,05,16,23,27.30
2017,09,05,16,24,27.30
2017,09,05,16,25,27.30
2017,09,05,16,26,27.30
2017,09,05,16,27,27.30
2017,09,05,16,28,27.30
2017,09,05,16,29,27.30
2017,09,05,16,30,27.30
2017,09,05,16,31,27.30
2017,09,05,16,32,27.40
2017,09,05,16,33,27.40
2017,09,05,16,34,27.40
2017,09,05,16,35,27.40
2017,09,05,16,36,27.40
2017,09,05,16,37,27.40
2017,09,05,16,38,27.40
2017,09,05,16,39,27.30
2017,09,05,16,40,27.30
2017,09,05,16,41,27.30
2017,09,05,16,42,27.30
2017,09,05,16,43,27.30
2017,09,05,16,44,27.20
2017,09,05,16,45,27.20
2017,09,05,16,46,27.20
2017,09,05,16,47,27.20
2017,09,05,16,48,27.10
2017,09,05,16,49,27.10
2017,09,05,16,50,27.10
2017,09,05,16,51,27.00
2017,09,05,16,52,27.00
2017,09,05,16,53,26.90
2017,09,05,16,54,26.90
2017,09,05,16,55,26.90
2017,09,05,16,56,26.90
2017,09,05,16,57,26.90
2017,09,05,16,58,26.90
2017,09,05,16,59,26.90
2017,09,05,17,00,26.90
2017,09,05,17,01,26.90
2017,09,05,17,02,26.90
2017,09,05,17,03,26.90
2017,09,05,17,04,26.90
2017,09,05,17,05,26.90
2017,09,05,17,06,26.90
2017,09,05,17,07,26.90
2017,09,05,17,08,26.90
2017,09,05,17,09,26.90
2017,09,05,17,10,26.90
2017,09,05,17,11,26.90
2017,09,05,17,12,26.90
2017,09,05,17,13,26.90
2017,09,05,17,14,26.90
2017,09,05,17,15,26.90
2017,09,05,17,16,26.90
2017,09,05,17,17,26.90
2017,09,05,17,18,26.90
2017,09,05,17,19,26.90